Location: Asheville, NC
(35.6000°N, 82.5500°W)
Time: 03:21:48
(UTC-04:00)

STRAND 1 - Pass Details

Date: 17 March 2018
Orbit: 769 x 781 km, 98.5° (Epoch: 19 June)

Event Time Altitude Azimuth Distance (km) Brightness Sun altitude
Rises 20:03:41 0° 29° (NNE) 3,255 ? -5.7°
Reaches altitude 10° 20:06:31 10° 45° (NE) 2,321 ? -6.3°
Maximum altitude 20:10:26 22° 95° (E) 1,638 ? -7.1°
Drops below altitude 10° 20:14:19 10° 145° (SE) 2,304 ? -7.9°
Sets 20:17:06 0° 160° (SSE) 3,225 ? -8.5°
